Wind_Speed
46 45 42 41 39 33 32 31 27 23 23 21 16 15 13 8 10 12 14 17 16 14 11 8 6 4 2 2 2 3 3 6 7 7 5 6 6 6 7 7 7 7 8 9 9 9 10 10 11
48 46 43 41 40 38 36 32 32 28 25 24 19 16 14 10 8 10 10 14 14 12 12 10 7 5 3 2 3 1 2 5 7 6 7 7 7 7 7 6 6 8 9 10 10 11 12 12 12
53 48 47 44 44 41 38 34 32 32 28 28 25 19 15 15 11 9 8 10 12 11 13 10 8 7 4 4 5 5 2 6 8 8 8 8 8 8 8 7 6 8 10 12 12 11 11 12 11
54 52 49 47 48 45 45 38 37 34 33 33 29 25 20 18 14 11 9 7 9 10 11 11 10 10 8 7 5 6 5 5 8 8 8 9 8 6 6 8 9 11 12 13 12 16 15 14 14
54 54 50 53 53 49 46 42 42 38 36 36 34 28 25 21 19 15 14 9 7 8 9 9 12 15 11 7 8 8 7 7 8 8 9 8 7 8 8 10 12 14 15 15 12 11 12 14 15
50 53 52 55 56 53 49 45 44 42 39 38 38 33 30 27 23 21 17 15 10 8 8 8 11 14 12 9 8 9 9 8 9 10 10 9 10 11 13 15 15 15 14 11 12 13 15 17 18
52 51 54 56 57 56 54 49 49 43 41 42 42 39 36 31 29 26 22 19 16 12 11 10 9 12 14 9 7 8 9 9 9 10 11 12 14 15 17 16 15 12 12 13 14 16 20 21 21
52 53 53 56 58 59 59 56 52 50 50 45 48 46 41 37 35 30 27 24 21 17 16 14 13 12 12 12 10 9 9 10 9 9 11 13 16 17 16 16 16 15 16 17 17 19 20 20 21
53 51 53 56 57 64 62 59 56 53 49 47 46 50 47 43 38 36 33 30 26 23 20 20 18 15 14 13 15 13 13 12 12 12 11 12 12 13 15 15 15 15 19 19 21 23 21 26 25
58 57 56 60 60 58 63 63 60 58 50 50 51 50 48 47 42 40 39 36 32 29 27 23 23 21 18 16 17 17 14 16 15 15 14 13 15 16 15 16 19 20 21 23 27 29 29 29 27
58 61 65 63 61 63 58 65 65 61 58 59 55 46 46 47 47 45 43 41 39 35 34 29 26 25 23 21 21 21 20 19 20 19 20 21 22 23 24 25 26 27 27 29 32 33 33 32 32
61 66 63 63 64 64 61 64 68 58 63 68 62 52 48 51 53 51 48 44 44 40 38 34 30 30 30 28 28 26 26 26 24 26 25 26 26 27 29 30 32 34 34 32 33 33 35 39 38
73 65 74 74 69 66 68 63 68 69 67 63 61 57 55 49 52 51 51 50 47 48 44 41 37 34 35 35 33 33 31 31 31 29 29 30 30 31 31 32 33 35 34 36 37 41 43 46 45
75 76 77 73 78 77 73 66 64 73 73 66 63 62 62 57 55 54 55 52 51 49 48 46 43 40 39 39 39 37 37 36 36 34 34 35 35 35 34 35 37 38 39 41 44 46 48 49 50
69 77 79 79 75 77 78 71 67 72 85 74 67 66 59 63 65 56 58 58 56 54 50 50 48 46 44 42 43 44 42 39 39 39 39 40 42 42 41 42 45 45 45 48 50 51 52 55 55
69 69 79 87 83 79 75 66 73 75 77 83 85 79 70 63 67 66 59 61 60 56 55 54 52 49 48 48 49 47 46 42 40 41 41 43 44 46 48 49 48 49 51 53 53 55 57 60 59
75 71 71 73 90 90 85 74 82 76 79 81 82 78 76 72 68 67 68 64 63 59 56 55 53 52 52 51 52 50 49 48 46 43 41 42 44 46 47 49 52 54 56 58 58 60 64 61 63
80 79 78 75 78 94 90 78 85 83 82 84 88 83 83 77 75 73 70 71 68 62 59 57 54 53 56 55 54 52 53 52 51 48 48 47 49 49 51 55 56 56 58 60 63 67 68 67 67
84 81 82 82 81 80 89 91 91 89 86 87 89 83 79 82 81 76 74 75 69 66 61 61 57 58 56 55 58 55 53 54 55 55 55 55 56 58 60 59 61 65 66 65 65 67 71 72 73
89 89 85 87 87 84 83 86 99 95 95 89 96 90 85 84 81 82 76 79 72 68 64 63 64 64 62 58 62 57 58 55 59 60 61 57 60 62 64 66 67 65 67 68 70 73 76 79 80
81 88 98 96 94 92 91 86 87 88 98 101 99 99 91 90 90 86 86 78 76 74 72 70 68 69 59 58 62 59 64 59 59 66 64 62 65 67 68 69 74 72 72 75 75 77 81 85 84
78 86 88 92 100 99 101 94 91 89 94 88 97 103 103 94 90 89 91 89 85 81 79 72 67 66 71 69 60 64 66 68 61 59 64 68 69 72 70 71 77 79 77 78 80 82 85 86 87
77 81 82 87 93 99 100 102 90 94 89 91 87 89 96 99 98 91 88 93 89 86 81 81 77 70 72 66 66 64 66 66 67 67 71 75 74 74 73 78 82 83 83 82 83 88 91 94 92
73 78 82 85 89 96 88 106 92 100 97 90 93 92 93 103 103 94 90 91 88 85 85 85 86 82 75 75 71 70 70 69 69 71 77 79 77 77 81 86 89 89 87 93 95 95 94 95 98
73 76 79 81 85 81 88 99 89 97 100 94 98 95 95 97 108 102 95 96 95 85 85 85 84 80 80 77 77 76 76 72 74 76 81 82 80 81 87 94 97 98 93 92 94 95 96 102 104
76 78 80 84 88 88 91 87 94 96 100 96 99 98 97 93 94 101 103 99 97 96 91 87 88 85 83 83 81 82 80 77 75 78 79 81 84 88 89 87 90 91 93 92 96 99 102 102 106
77 80 81 82 86 87 85 81 83 83 89 92 98 101 96 91 94 91 94 104 97 97 94 90 87 86 83 84 83 83 82 78 72 72 77 77 78 78 82 86 90 94 95 96 100 100 104 105 107
70 70 71 72 76 74 74 76 74 74 76 83 88 93 95 92 94 89 86 93 96 99 94 92 89 89 87 82 79 78 78 74 76 75 77 78 79 83 87 88 92 93 97 100 102 106 108 105 109
64 67 68 69 70 70 69 69 68 67 66 72 84 89 88 85 89 85 83 86 100 97 93 91 88 88 87 80 79 75 73 73 78 83 84 86 85 87 87 93 92 97 101 104 106 108 106 108 111
51 53 55 56 56 55 59 63 68 69 67 68 80 75 81 84 85 87 83 82 83 77 73 72 85 85 83 85 77 72 72 74 83 86 83 87 89 92 94 96 98 102 103 107 105 107 109 112 115
Wind_Direction
231 231 237 240 236 231 234 247 246 248 256 258 267 279 289 320 328 349 357 6 10 7 357 345 347 359 344 278 262 243 203 199 185 191 198 198 216 223 228 236 243 246 243 263 285 294 290 293 297
232 232 233 235 233 231 232 239 243 248 253 255 255 269 274 288 307 332 349 359 4 3 2 353 341 342 343 279 263 229 249 229 217 219 213 222 229 242 251 243 249 257 277 281 298 295 295 298 304
230 231 230 232 228 227 233 235 231 243 244 243 252 253 261 271 280 300 331 342 2 355 355 353 354 349 334 311 284 278 272 195 218 213 227 238 252 259 259 246 278 288 291 295 298 309 307 323 307
229 229 229 231 226 226 229 231 235 237 245 235 243 255 251 260 265 279 292 321 340 347 347 344 344 348 335 309 273 252 224 214 227 235 247 254 266 269 273 269 291 296 306 311 308 319 328 327 325
228 228 227 231 228 226 229 232 234 235 235 233 238 250 251 246 252 260 273 288 306 322 332 331 325 329 330 322 285 269 250 234 237 251 258 270 261 263 265 275 289 299 305 300 304 321 327 329 335
227 226 225 230 231 230 230 230 235 234 232 232 235 242 243 243 244 250 256 266 273 283 293 298 312 321 324 317 296 284 278 266 263 262 268 261 262 272 270 282 292 296 311 302 302 316 323 325 327
229 228 223 226 234 233 227 228 234 233 237 236 235 238 239 240 241 240 245 250 259 263 268 274 281 299 308 306 295 281 280 277 268 259 263 266 268 270 268 277 289 302 310 304 305 312 315 317 316
227 228 228 230 235 233 228 229 228 237 243 235 237 235 236 235 239 239 241 243 247 256 259 261 264 277 287 297 292 281 272 275 263 267 265 268 266 272 275 281 288 296 300 306 310 308 306 313 315
227 227 230 232 234 230 228 227 230 231 236 237 239 239 238 237 236 240 240 240 244 249 254 256 258 259 270 280 289 291 274 270 267 285 281 277 274 280 276 278 289 295 299 302 306 309 308 314 313
234 230 232 235 234 230 226 227 228 228 230 239 238 238 241 243 239 238 241 238 239 243 250 252 255 258 262 268 273 282 275 272 276 276 281 283 280 286 284 282 282 283 291 297 302 302 302 305 304
242 237 232 231 230 229 227 229 227 229 230 235 238 240 239 245 245 242 240 242 239 240 243 247 251 259 262 264 264 267 270 273 272 270 275 273 278 284 285 288 285 286 290 294 293 293 294 293 294
245 238 234 241 238 233 231 224 227 228 230 232 229 231 236 244 245 248 245 244 243 241 242 244 247 250 254 258 261 260 268 273 277 272 270 271 276 279 280 284 287 285 286 291 291 288 289 295 292
249 246 238 240 243 238 234 227 226 228 232 229 231 228 231 242 244 247 247 247 248 247 244 243 243 248 251 252 258 262 260 265 268 270 276 282 278 279 281 280 280 282 283 283 287 288 288 291 288
241 247 242 242 240 237 236 232 226 228 227 230 227 230 234 228 241 251 245 244 249 252 251 248 247 247 250 253 255 255 259 263 268 269 271 273 274 276 277 277 278 279 282 283 286 289 292 295 295
237 238 243 246 243 238 235 235 231 230 228 227 226 226 229 234 236 241 243 248 250 249 252 251 253 253 253 254 255 256 258 263 265 267 270 273 276 278 279 279 280 280 281 283 285 288 294 296 292
241 234 235 238 241 242 237 235 236 229 233 232 233 234 234 232 238 236 241 248 248 247 249 255 254 254 257 260 258 258 262 264 268 270 273 277 278 280 280 283 284 284 285 286 288 289 293 289 289
243 243 241 237 236 234 243 236 236 231 233 233 230 234 233 234 235 239 239 243 243 246 247 253 257 259 259 257 260 263 265 267 270 271 272 274 276 277 280 283 286 289 292 291 292 289 295 294 294
241 241 240 242 238 234 236 233 231 233 233 230 230 231 231 231 236 237 237 239 239 244 249 254 255 257 258 258 260 263 270 270 270 272 272 274 277 280 283 283 283 285 287 292 295 293 291 293 292
239 240 239 242 241 240 236 232 227 231 229 232 232 233 235 232 234 237 239 237 240 243 244 247 250 254 258 263 262 266 268 273 271 270 274 275 279 280 281 281 287 290 287 290 288 292 290 290 293
242 240 239 239 239 238 237 233 232 227 230 233 234 238 238 235 234 236 235 237 236 237 242 243 250 256 258 260 265 269 270 273 271 271 273 280 281 283 286 285 282 283 290 286 288 288 293 292 297
243 241 241 239 239 238 236 233 235 233 233 235 234 233 241 235 238 235 237 235 239 241 241 246 249 248 249 259 263 268 272 268 275 271 276 279 282 283 282 290 284 285 284 285 287 293 292 294 296
244 243 240 241 241 239 239 233 235 236 234 235 234 231 236 239 236 235 236 236 239 242 243 244 248 256 256 254 255 266 268 270 276 277 275 275 274 277 280 283 281 282 284 285 290 291 292 293 294
244 245 243 241 240 239 239 239 234 235 236 238 238 239 235 233 235 233 238 235 237 240 240 244 248 256 256 253 258 253 259 267 266 268 273 275 278 278 279 281 281 285 289 288 291 290 289 294 294
248 247 246 244 243 240 242 240 230 235 235 236 233 235 235 230 233 233 236 235 236 237 241 246 251 253 258 256 262 260 263 262 270 275 275 277 279 281 282 282 283 287 287 288 291 292 293 296 294
249 249 251 251 251 247 243 241 233 235 234 234 231 229 232 232 231 233 235 237 236 238 241 243 246 250 256 255 258 262 265 270 273 276 278 279 281 279 280 282 286 288 289 289 291 294 295 295 297
252 252 252 251 250 248 243 242 240 233 235 233 231 227 229 230 234 236 234 237 240 239 238 240 243 247 251 252 257 260 264 268 273 275 272 275 276 280 283 284 284 287 290 291 292 292 293 294 295
258 257 255 254 252 251 250 245 241 234 232 229 230 225 227 227 230 235 237 234 235 240 241 242 245 247 251 254 259 263 265 267 267 271 273 274 277 277 280 280 284 287 289 291 291 289 292 292 293
263 262 260 255 254 253 251 248 245 240 234 228 229 225 225 225 226 232 237 234 238 237 241 244 246 247 249 254 258 261 260 260 261 266 271 273 273 276 276 280 282 283 288 289 290 288 291 292 294
261 258 257 254 250 248 246 244 242 238 234 228 227 226 222 222 221 225 232 234 234 239 242 244 244 248 249 252 256 261 265 261 261 264 270 271 272 274 277 279 281 284 286 287 287 288 288 292 293
257 253 251 249 246 242 238 237 233 232 227 221 225 224 224 218 218 222 227 233 237 238 238 240 244 247 250 252 257 261 261 262 265 270 265 266 270 275 276 277 280 282 284 284 286 287 289 290 290
Height
10845 10849 10852 10855 10858 10857 10858 10861 10863 10864 10865 10866 10868 10869 10869 10869 10869 10867 10865 10863 10861 10860 10860 10859 10858 10857 10856 10856 10856 10856 10856 10856 10855 10855 10855 10855 10855 10855 10856 10856 10856 10856 10856 10855 10855 10853 10852 10850 10849
10839 10844 10847 10849 10851 10851 10853 10855 10858 10859 10861 10862 10863 10865 10866 10867 10866 10866 10864 10862 10860 10859 10859 10858 10857 10857 10856 10855 10855 10855 10856 10855 10855 10854 10854 10854 10854 10854 10854 10854 10855 10855 10855 10854 10852 10851 10849 10848 10846
10831 10837 10841 10843 10843 10844 10848 10851 10852 10854 10856 10857 10859 10860 10862 10864 10864 10864 10863 10862 10860 10859 10858 10858 10857 10856 10855 10855 10854 10854 10854 10853 10854 10853 10853 10853 10853 10853 10853 10853 10853 10853 10852 10851 10850 10849 10847 10846 10844
10822 10830 10834 10836 10836 10838 10841 10845 10846 10848 10851 10852 10854 10856 10857 10859 10860 10861 10861 10860 10859 10859 10858 10857 10856 10855 10854 10854 10853 10852 10852 10852 10852 10852 10852 10852 10852 10852 10852 10852 10851 10850 10849 10848 10847 10846 10844 10843 10842
10814 10821 10827 10827 10828 10830 10835 10838 10840 10842 10845 10847 10848 10851 10852 10853 10856 10857 10858 10858 10857 10857 10856 10856 10855 10854 10853 10852 10852 10851 10850 10850 10850 10850 10851 10851 10851 10851 10851 10850 10850 10849 10847 10846 10844 10843 10842 10841 10839
10806 10812 10817 10818 10819 10825 10828 10832 10834 10835 10839 10840 10843 10845 10846 10848 10850 10852 10854 10855 10855 10854 10854 10853 10854 10853 10852 10851 10850 10849 10849 10848 10848 10849 10849 10849 10849 10849 10849 10848 10847 10846 10844 10843 10841 10840 10839 10838 10836
10797 10801 10807 10808 10812 10819 10820 10823 10826 10829 10832 10835 10836 10839 10840 10842 10844 10846 10848 10850 10851 10851 10851 10851 10851 10851 10850 10849 10848 10848 10848 10847 10847 10847 10847 10847 10846 10846 10845 10845 10844 10843 10842 10840 10839 10837 10836 10834 10833
10786 10793 10798 10800 10802 10806 10813 10815 10816 10821 10824 10827 10829 10830 10833 10835 10837 10840 10842 10844 10846 10847 10847 10847 10847 10847 10847 10847 10846 10845 10845 10844 10844 10844 10844 10843 10842 10842 10842 10841 10840 10840 10838 10837 10835 10834 10832 10831 10829
10776 10786 10789 10788 10789 10790 10801 10805 10808 10810 10815 10819 10821 10823 10826 10827 10831 10833 10836 10838 10840 10841 10842 10843 10842 10843 10843 10843 10842 10842 10842 10841 10841 10841 10841 10840 10839 10838 10838 10837 10836 10835 10834 10833 10831 10829 10828 10826 10824
10766 10773 10773 10769 10775 10779 10789 10795 10798 10802 10806 10810 10810 10814 10819 10820 10825 10826 10829 10830 10832 10834 10836 10837 10838 10838 10838 10839 10838 10838 10838 10838 10837 10837 10837 10836 10835 10834 10833 10833 10832 10831 10830 10828 10827 10824 10823 10821 10819
10753 10760 10757 10759 10762 10769 10777 10784 10791 10794 10798 10797 10799 10810 10812 10813 10814 10818 10821 10823 10825 10826 10828 10831 10832 10834 10833 10834 10834 10833 10833 10833 10832 10832 10831 10831 10830 10829 10828 10827 10826 10825 10824 10823 10821 10819 10817 10814 10812
10740 10743 10743 10744 10751 10758 10763 10770 10781 10785 10783 10785 10790 10799 10803 10803 10804 10809 10813 10815 10817 10818 10820 10823 10825 10826 10827 10828 10828 10828 10828 10828 10827 10826 10826 10825 10824 10823 10822 10821 10819 10818 10818 10817 10815 10812 10810 10808 10805
10721 10724 10728 10730 10737 10746 10749 10761 10766 10774 10772 10776 10781 10786 10790 10793 10796 10798 10804 10806 10808 10810 10812 10814 10817 10819 10820 10820 10821 10821 10821 10822 10821 10821 10820 10819 10818 10817 10815 10814 10812 10810 10809 10808 10807 10804 10802 10800 10797
10702 10707 10712 10716 10719 10728 10735 10743 10754 10759 10758 10764 10768 10773 10777 10781 10786 10790 10791 10795 10798 10802 10804 10806 10808 10809 10811 10813 10813 10813 10814 10814 10815 10814 10812 10811 10810 10808 10807 10805 10803 10802 10801 10800 10798 10796 10793 10791 10789
10686 10691 10694 10698 10703 10712 10718 10734 10744 10738 10740 10748 10753 10758 10764 10769 10775 10777 10782 10786 10790 10793 10796 10797 10799 10801 10803 10804 10804 10804 10805 10807 10807 10806 10805 10803 10801 10800 10798 10796 10794 10793 10791 10789 10788 10785 10783 10780 10777
10670 10675 10682 10681 10683 10691 10700 10728 10719 10722 10725 10732 10737 10745 10751 10758 10763 10766 10773 10776 10780 10783 10784 10788 10790 10792 10794 10795 10794 10795 10797 10797 10798 10797 10796 10795 10793 10790 10788 10786 10784 10782 10780 10779 10777 10774 10771 10767 10765
10652 10660 10661 10661 10666 10670 10679 10705 10696 10705 10708 10715 10722 10731 10738 10746 10751 10754 10759 10764 10769 10773 10777 10779 10781 10784 10785 10784 10784 10786 10787 10788 10788 10787 10787 10785 10783 10781 10779 10776 10774 10771 10769 10767 10765 10761 10758 10755 10753
10628 10636 10640 10644 10644 10652 10661 10681 10679 10687 10693 10701 10708 10715 10724 10733 10737 10739 10744 10751 10758 10763 10766 10769 10772 10773 10773 10775 10776 10777 10778 10778 10779 10778 10777 10774 10772 10770 10768 10765 10762 10759 10756 10754 10751 10748 10744 10741 10737
10608 10614 10620 10623 10628 10633 10644 10652 10663 10664 10677 10686 10694 10700 10710 10716 10718 10725 10730 10738 10746 10751 10754 10757 10759 10761 10763 10766 10767 10768 10769 10769 10768 10767 10765 10764 10762 10759 10756 10753 10751 10746 10743 10740 10738 10734 10728 10725 10721
10587 10592 10595 10599 10604 10613 10619 10633 10638 10649 10660 10667 10676 10684 10690 10697 10708 10712 10717 10727 10731 10736 10741 10745 10748 10750 10753 10756 10758 10759 10760 10759 10757 10755 10754 10753 10750 10747 10744 10741 10737 10733 10730 10725 10721 10717 10713 10708 10703
10563 10567 10569 10574 10578 10589 10595 10615 10619 10634 10643 10648 10657 10666 10672 10683 10690 10697 10703 10713 10717 10724 10728 10731 10734 10738 10742 10744 10747 10749 10748 10747 10746 10744 10743 10740 10737 10734 10731 10727 10724 10718 10714 10711 10706 10701 10696 10690 10685
10541 10538 10544 10551 10555 10566 10567 10598 10600 10610 10618 10628 10636 10646 10654 10662 10670 10679 10688 10697 10707 10711 10716 10719 10723 10728 10731 10734 10735 10737 10736 10736 10735 10732 10730 10726 10723 10719 10715 10710 10706 10702 10700 10696 10691 10684 10678 10673 10666
10514 10514 10521 10526 10531 10535 10550 10563 10600 10585 10601 10615 10619 10623 10633 10642 10649 10660 10669 10678 10687 10697 10702 10707 10712 10716 10719 10721 10723 10723 10723 10722 10720 10717 10714 10710 10707 10702 10698 10695 10691 10687 10684 10680 10675 10668 10661 10655 10648
10491 10492 10495 10500 10504 10511 10535 10527 10573 10568 10581 10585 10594 10600 10610 10622 10632 10643 10653 10663 10672 10682 10690 10695 10699 10703 10707 10709 10710 10710 10710 10708 10706 10703 10699 10695 10690 10687 10682 10676 10673 10671 10667 10662 10656 10648 10643 10636 10628
10468 10469 10471 10477 10479 10499 10500 10504 10548 10538 10546 10563 10568 10578 10588 10601 10611 10625 10638 10648 10656 10668 10674 10680 10684 10689 10693 10695 10696 10696 10696 10695 10693 10688 10684 10679 10675 10672 10665 10660 10655 10649 10648 10642 10636 10629 10622 10616 10608
10443 10448 10451 10452 10454 10466 10468 10488 10495 10516 10520 10535 10543 10558 10566 10586 10598 10607 10621 10631 10644 10648 10658 10663 10670 10675 10678 10680 10681 10683 10683 10683 10679 10673 10670 10663 10660 10654 10649 10641 10639 10635 10629 10623 10616 10609 10602 10594 10587
10420 10422 10426 10431 10430 10437 10450 10464 10468 10487 10499 10513 10520 10537 10554 10571 10579 10590 10601 10615 10628 10633 10643 10651 10657 10661 10664 10666 10668 10670 10669 10669 10668 10661 10651 10649 10645 10640 10633 10627 10621 10616 10611 10607 10599 10590 10583 10574 10566
10396 10398 10401 10403 10407 10419 10431 10439 10451 10463 10481 10495 10504 10521 10534 10548 10562 10576 10586 10602 10610 10619 10629 10637 10643 10647 10650 10653 10656 10654 10654 10656 10650 10648 10639 10634 10630 10626 10617 10612 10603 10595 10592 10588 10580 10571 10562 10553 10544
10377 10377 10378 10384 10392 10399 10410 10421 10432 10445 10461 10477 10486 10499 10516 10533 10549 10561 10573 10584 10597 10607 10615 10622 10629 10631 10635 10640 10641 10640 10640 10636 10635 10631 10627 10620 10615 10610 10603 10594 10588 10582 10575 10568 10560 10552 10542 10532 10522
10357 10358 10360 10364 10372 10384 10391 10401 10412 10425 10440 10456 10464 10488 10503 10516 10532 10548 10561 10573 10583 10595 10604 10605 10613 10618 10621 10625 10629 10624 10625 10614 10615 10613 10610 10601 10597 10592 10585 10579 10576 10566 10559 10550 10540 10531 10522 10512 10500